STARLINK-36823, 68070

Orbit data source: Space-Track

STARLINK-36823, 68070 is a payload satellite owned by SpaceX/Seattle (US) in LEO that was launched on Wed, 04 Mar 2026 UTC via an FALCON 9 launch vehicle from the Air Force Eastern Test Range (AFETR). Payload-class satellites include a variety of spacecraft equipped with specific instruments for various scientific and technological missions. These include communications satellites like Starlink; space stations such as the ISS; scientific satellites like the Hubble; Earth observation satellites from companies like Planet Labs, Umbra, and HawkEye 360; GPS; miniature CubeSats for education and research; and military/defense satellites.

Loading next visibility...
Identifier
68070, 2026-042B
Orbit
LEO
Country
Flag of USUS
Related business
Manufacturer
SpaceX/Seattle
Mission
Operational spacecraft
Bus & Motor
STARLINK V2MO, Unknown motor
Mass
575 kg wet, ~530 kg dry
Launch date (UTC)
2026-03-04 (1 month ago)
Launch vehicle
FALCON 9
Launch site
Air Force Eastern Test Range (AFETR)
Object type
Payload
Rocket body
Debris
Shape & HBR
Unknown shape, 17.7 m
Radar Cross Section
RCS unknown

Expand to show TLE details & history
Last TLE update: 10 hours ago

TLE from 10 hours ago
0 STARLINK-36823
1 68070U 26042B   26102.17394326  .00211636  00000-0  13496-2 0  9995
2 68070  53.1597  27.3681 0001757 101.5080 258.6138 15.75254551  7375
Epoch: 2026-04-12T04:10Z
TLE epoch observation values (Epoch: 2026-04-12T04:10:28.697Z)
Latitude
-0.00001°
Longitude
124.36584°
Altitude
345.057 km
Speed
7.703 km/s
True Right ascension
01h 49m 28s
True Declination
0° 00' 00"
Sunlit
Object was in daylight at epoch
Visualization orbit readout
Latitude
Unknown
Longitude
Unknown
Altitude
Unknown
Speed
Unknown
Apparent Right ascension
Unknown
Apparent Declination
Unknown
Sunlit
N/A
Visualization observer readout
Local Sidereal Time
20:39:08
Azimuth
Unknown
Elevation
Unknown
Doppler factor
Unknown
Orbital elements
Apogee altitude
345.349 km
Perigee altitude
342.987 km
Semi-major axis
6,722.305 km
Eccentricity
0.00018
Inclination
53.1597°
RAAN
27.3681°
Arg. of periapsis
101.508°
True anomaly
258.59406°
Mean anomaly
258.6138°
Eccentric anomaly
258.60393°
Mean motion
3.93791 °/min
Orbital period
91.42 mins
BSTAR
0.0013496
Loading maneuver chart data...
Computing Atmospheric mass density...
Loading historical data...
Loading historical data...
Loading historical data...
Loading historical data...
Loading historical data...
Loading historical data...
Loading historical data...

Documentation

Showing up to 5 results
|